DAL2307 KATL-TIST

Flight info

Callsign DAL2307
Flight time N/A
Altitude 35000
Route VRSTY3 NOKIE DCT YANTI Q89 MANLE Y185 SATOW/N0446F370 Y185 RENAH Y355 KOLAO DCT JETSS
Aircraft B752/M-SDE2E3FGHIJ3J4J7RWXY/LB1

Departure

Time 2026-04-30 20:26
Airport Hartsfield Jackson Atlanta International Airport (KATL)

Arrival

Time N/A
Airport Cyril E. King Airport (TIST)
Time Latitude Longitude Altitude Speed Heading
2026-04-30 20:03 33.63957 -84.43533 1012 ft 0 kts 270°
2026-04-30 20:09 33.63956 -84.43523 1012 ft 2 kts 271°
2026-04-30 20:10 33.63972 -84.43477 1012 ft 1 kts 203°
2026-04-30 20:10 33.63985 -84.43469 1012 ft 2 kts 255°
2026-04-30 20:10 33.63995 -84.43449 1012 ft 2 kts 214°
2026-04-30 20:11 33.64017 -84.43451 1012 ft 0 kts 186°
2026-04-30 20:11 33.64025 -84.43450 1012 ft 1 kts 174°
2026-04-30 20:11 33.64034 -84.43451 1012 ft 1 kts 175°
2026-04-30 20:12 33.64048 -84.43452 1012 ft 0 kts 181°
2026-04-30 20:16 33.64039 -84.43452 1012 ft 2 kts 175°
2026-04-30 20:16 33.64000 -84.43449 1012 ft 8 kts 181°
2026-04-30 20:16 33.63944 -84.43455 1012 ft 7 kts 184°
2026-04-30 20:16 33.63895 -84.43457 1012 ft 6 kts 182°
2026-04-30 20:17 33.63853 -84.43459 1012 ft 5 kts 182°
2026-04-30 20:17 33.63802 -84.43459 1012 ft 11 kts 180°
2026-04-30 20:17 33.63728 -84.43459 1012 ft 7 kts 176°
2026-04-30 20:17 33.63689 -84.43442 1012 ft 5 kts 142°
2026-04-30 20:18 33.63670 -84.43412 1012 ft 4 kts 113°
2026-04-30 20:18 33.63663 -84.43355 1012 ft 10 kts 91°
2026-04-30 20:18 33.63663 -84.43266 1010 ft 10 kts 90°
2026-04-30 20:18 33.63663 -84.43177 1009 ft 13 kts 90°
2026-04-30 20:19 33.63664 -84.43053 1009 ft 16 kts 90°
2026-04-30 20:19 33.63664 -84.42963 1008 ft 15 kts 90°
2026-04-30 20:19 33.63662 -84.42799 1005 ft 13 kts 93°
2026-04-30 20:19 33.63656 -84.42693 1003 ft 12 kts 92°
2026-04-30 20:20 33.63655 -84.42597 1001 ft 11 kts 90°
2026-04-30 20:20 33.63655 -84.42473 998 ft 17 kts 91°
2026-04-30 20:20 33.63656 -84.42318 992 ft 18 kts 89°
2026-04-30 20:20 33.63652 -84.42160 986 ft 18 kts 90°
2026-04-30 20:21 33.63654 -84.42004 980 ft 19 kts 89°
2026-04-30 20:21 33.63655 -84.41836 971 ft 21 kts 89°
2026-04-30 20:21 33.63655 -84.41664 967 ft 18 kts 92°
2026-04-30 20:21 33.63657 -84.41531 965 ft 15 kts 89°
2026-04-30 20:22 33.63654 -84.41416 964 ft 11 kts 90°
2026-04-30 20:22 33.63654 -84.41332 964 ft 8 kts 90°
2026-04-30 20:22 33.63655 -84.41255 964 ft 5 kts 89°
2026-04-30 20:22 33.63655 -84.41251 964 ft 1 kts 89°
2026-04-30 20:23 33.63654 -84.41173 964 ft 18 kts 91°
2026-04-30 20:23 33.63656 -84.41021 961 ft 9 kts 90°
2026-04-30 20:23 33.63654 -84.40953 959 ft 9 kts 101°
2026-04-30 20:23 33.63612 -84.40911 957 ft 10 kts 173°
2026-04-30 20:24 33.63539 -84.40909 957 ft 10 kts 178°
2026-04-30 20:24 33.63504 -84.40906 957 ft 3 kts 181°
2026-04-30 20:24 33.63483 -84.40914 958 ft 2 kts 215°
2026-04-30 20:24 33.63478 -84.40922 958 ft 1 kts 240°
2026-04-30 20:25 33.63476 -84.40932 958 ft 0 kts 264°
2026-04-30 20:25 33.63472 -84.40981 960 ft 25 kts 266°
2026-04-30 20:26 33.63468 -84.42750 1052 ft 175 kts 273°
2026-04-30 20:26 33.63488 -84.45931 2621 ft 204 kts 274°
2026-04-30 20:26 33.63478 -84.47707 3153 ft 222 kts 274°
2026-04-30 20:27 33.63469 -84.51619 4535 ft 247 kts 273°
2026-04-30 20:27 33.63466 -84.55893 5961 ft 270 kts 273°
2026-04-30 20:28 33.63460 -84.60307 7921 ft 268 kts 272°
2026-04-30 20:28 33.63113 -84.64726 9724 ft 273 kts 248°
2026-04-30 20:29 33.60240 -84.67834 11316 ft 292 kts 216°
2026-04-30 20:30 33.54139 -84.69102 13548 ft 325 kts 175°
2026-04-30 20:30 33.47391 -84.67812 15781 ft 334 kts 178°
2026-04-30 20:31 33.40516 -84.64321 16667 ft 409 kts 140°
2026-04-30 20:32 33.36013 -84.55007 17955 ft 448 kts 119°
2026-04-30 20:32 33.33061 -84.48414 19155 ft 457 kts 122°
2026-04-30 20:33 33.31502 -84.45095 19808 ft 459 kts 122°
2026-04-30 20:33 33.28320 -84.38441 20803 ft 470 kts 123°
2026-04-30 20:33 33.26689 -84.35059 21401 ft 472 kts 123°
2026-04-30 20:34 33.23352 -84.28164 22409 ft 480 kts 124°
2026-04-30 20:34 33.19991 -84.21240 23370 ft 489 kts 124°
2026-04-30 20:35 33.18269 -84.17703 23685 ft 497 kts 124°
2026-04-30 20:35 33.16534 -84.14134 24248 ft 499 kts 124°
2026-04-30 20:35 33.13005 -84.06901 24993 ft 510 kts 124°
2026-04-30 20:36 33.11209 -84.03224 25431 ft 514 kts 125°
2026-04-30 20:36 33.09236 -83.99740 25748 ft 514 kts 134°
2026-04-30 20:36 33.04116 -83.93943 26486 ft 509 kts 149°
2026-04-30 20:37 33.01289 -83.91379 26982 ft 509 kts 150°
2026-04-30 20:37 32.98462 -83.88850 27174 ft 517 kts 150°
2026-04-30 20:37 32.95557 -83.86273 27711 ft 516 kts 150°
2026-04-30 20:37 32.92680 -83.83742 27918 ft 523 kts 151°
2026-04-30 20:38 32.89716 -83.81145 28243 ft 528 kts 150°
2026-04-30 20:38 32.86784 -83.78581 28597 ft 530 kts 150°
2026-04-30 20:38 32.83807 -83.75982 28934 ft 534 kts 150°
2026-04-30 20:39 32.77810 -83.70758 29587 ft 540 kts 151°
2026-04-30 20:39 32.74774 -83.68116 29989 ft 542 kts 150°
2026-04-30 20:39 32.71699 -83.65448 30192 ft 547 kts 151°
2026-04-30 20:40 32.65522 -83.60083 30942 ft 550 kts 150°
2026-04-30 20:40 32.62413 -83.57391 31125 ft 555 kts 150°
2026-04-30 20:40 32.59324 -83.54718 31435 ft 557 kts 150°
2026-04-30 20:41 32.53108 -83.49339 32344 ft 554 kts 150°
2026-04-30 20:41 32.49981 -83.46640 32682 ft 554 kts 150°
2026-04-30 20:41 32.46876 -83.43961 33014 ft 554 kts 150°
2026-04-30 20:41 32.43779 -83.41290 33426 ft 554 kts 150°
2026-04-30 20:42 32.40667 -83.38611 33734 ft 555 kts 150°
2026-04-30 20:42 32.37523 -83.35902 34211 ft 553 kts 150°
2026-04-30 20:42 32.31316 -83.30569 34974 ft 551 kts 150°
2026-04-30 20:43 32.28222 -83.27910 35413 ft 548 kts 151°
2026-04-30 20:43 32.25158 -83.25281 35795 ft 546 kts 151°
2026-04-30 20:43 32.22113 -83.22675 36025 ft 547 kts 151°
2026-04-30 20:44 32.15926 -83.17381 36460 ft 548 kts 150°
2026-04-30 20:44 32.12864 -83.14764 36776 ft 546 kts 150°
2026-04-30 20:45 32.00583 -83.04290 36862 ft 543 kts 151°
2026-04-30 20:45 31.94471 -82.99091 36867 ft 544 kts 151°
2026-04-30 20:46 31.82193 -82.88675 36859 ft 545 kts 150°
2026-04-30 20:47 31.73236 -82.80505 36862 ft 544 kts 146°
2026-04-30 20:48 31.64452 -82.72155 36861 ft 544 kts 146°
2026-04-30 20:48 31.58590 -82.66595 36866 ft 543 kts 146°
2026-04-30 20:49 31.52716 -82.61041 36878 ft 542 kts 146°
2026-04-30 20:50 31.43893 -82.52711 36870 ft 541 kts 146°
2026-04-30 20:50 31.38058 -82.47215 36868 ft 540 kts 146°
2026-04-30 20:51 31.32214 -82.41720 36872 ft 541 kts 146°
2026-04-30 20:51 31.23457 -82.33501 36855 ft 537 kts 146°
2026-04-30 20:52 31.17634 -82.28046 36857 ft 537 kts 147°
2026-04-30 20:53 31.08925 -82.19906 36835 ft 535 kts 146°
2026-04-30 20:53 31.03128 -82.14499 36834 ft 533 kts 146°
2026-04-30 20:54 30.94428 -82.06398 36844 ft 533 kts 146°
2026-04-30 20:55 30.85775 -81.98363 36825 ft 532 kts 146°
2026-04-30 20:55 30.79965 -81.92980 36830 ft 533 kts 146°
2026-04-30 20:56 30.71316 -81.84978 36848 ft 531 kts 146°
2026-04-30 20:57 30.62610 -81.76946 36857 ft 531 kts 147°
2026-04-30 20:57 30.56613 -81.72047 36867 ft 529 kts 150°
2026-04-30 20:58 30.47558 -81.64759 36868 ft 529 kts 149°
2026-04-30 20:58 30.41534 -81.59914 36873 ft 528 kts 149°
2026-04-30 20:59 30.32521 -81.52678 36884 ft 528 kts 149°
2026-04-30 21:00 30.20437 -81.42997 36891 ft 527 kts 149°
2026-04-30 21:01 30.11415 -81.35790 36895 ft 528 kts 149°
2026-04-30 21:02 30.02385 -81.28592 36879 ft 525 kts 150°
2026-04-30 21:02 29.96376 -81.23814 36880 ft 527 kts 149°
2026-04-30 21:03 29.90377 -81.19047 36879 ft 524 kts 150°
2026-04-30 21:03 29.84318 -81.14247 36871 ft 525 kts 150°
2026-04-30 21:04 29.77924 -81.10498 36868 ft 518 kts 162°
2026-04-30 21:04 29.67940 -81.05702 36859 ft 517 kts 163°
2026-04-30 21:05 29.61325 -81.02564 36864 ft 516 kts 163°
2026-04-30 21:05 29.54674 -80.99424 36869 ft 516 kts 163°
2026-04-30 21:06 29.48094 -80.96322 36871 ft 514 kts 162°
2026-04-30 21:06 29.41427 -80.93185 36874 ft 516 kts 162°
2026-04-30 21:07 29.34832 -80.90087 36882 ft 514 kts 162°
2026-04-30 21:07 29.28191 -80.86972 36886 ft 515 kts 162°
2026-04-30 21:08 29.21560 -80.83865 36890 ft 514 kts 162°
2026-04-30 21:08 29.14954 -80.80776 36889 ft 513 kts 162°
2026-04-30 21:09 29.08504 -80.77763 36891 ft 512 kts 162°
2026-04-30 21:09 29.01932 -80.74696 36890 ft 513 kts 162°
2026-04-30 21:10 28.95335 -80.71623 36886 ft 511 kts 162°
2026-04-30 21:10 28.88949 -80.68017 36901 ft 517 kts 148°
2026-04-30 21:11 28.83590 -80.62463 36888 ft 522 kts 129°
2026-04-30 21:11 28.79496 -80.55698 36877 ft 523 kts 123°
2026-04-30 21:12 28.75477 -80.48819 36881 ft 522 kts 123°
2026-04-30 21:12 28.71446 -80.41921 36883 ft 522 kts 123°
2026-04-30 21:13 28.67418 -80.35104 36889 ft 521 kts 123°
2026-04-30 21:13 28.63366 -80.28272 36876 ft 519 kts 124°
2026-04-30 21:14 28.59320 -80.21461 36882 ft 520 kts 124°
2026-04-30 21:14 28.55294 -80.14693 36890 ft 519 kts 124°
2026-04-30 21:15 28.51262 -80.07928 36892 ft 519 kts 124°
2026-04-30 21:15 28.47219 -80.01154 36894 ft 518 kts 124°
2026-04-30 21:16 28.43157 -79.94359 36896 ft 519 kts 123°
2026-04-30 21:16 28.39111 -79.87601 36899 ft 517 kts 123°
2026-04-30 21:17 28.35082 -79.80881 36906 ft 519 kts 124°
2026-04-30 21:17 28.31030 -79.74139 36905 ft 518 kts 123°
2026-04-30 21:18 28.26972 -79.67392 36908 ft 517 kts 123°
2026-04-30 21:18 28.22934 -79.60689 36909 ft 516 kts 123°
2026-04-30 21:19 28.18892 -79.53993 36912 ft 518 kts 123°
2026-04-30 21:19 28.14826 -79.47266 36910 ft 515 kts 123°
2026-04-30 21:20 28.10788 -79.40596 36913 ft 517 kts 123°
2026-04-30 21:20 28.06729 -79.33903 36908 ft 515 kts 124°
2026-04-30 21:21 28.02676 -79.27226 36905 ft 515 kts 124°
2026-04-30 21:22 27.96595 -79.17233 36907 ft 516 kts 124°
2026-04-30 21:23 27.88464 -79.03907 36901 ft 517 kts 124°
2026-04-30 21:23 27.82371 -78.93947 36903 ft 515 kts 124°
2026-04-30 21:24 27.78289 -78.87286 36908 ft 516 kts 124°
2026-04-30 21:24 27.74203 -78.80630 36916 ft 516 kts 124°
2026-04-30 21:25 27.68093 -78.70699 36927 ft 516 kts 123°
2026-04-30 21:26 27.62069 -78.60730 36925 ft 515 kts 122°
2026-04-30 21:27 27.56173 -78.50619 36929 ft 514 kts 122°
2026-04-30 21:27 27.52240 -78.43890 36925 ft 514 kts 121°
2026-04-30 21:28 27.46349 -78.33837 36929 ft 514 kts 122°
2026-04-30 21:29 27.40437 -78.23772 36917 ft 513 kts 122°
2026-04-30 21:30 27.30615 -78.07093 36922 ft 512 kts 122°
2026-04-30 21:31 27.20808 -77.90501 36935 ft 510 kts 122°
2026-04-30 21:32 27.14917 -77.80563 36935 ft 511 kts 122°
2026-04-30 21:32 27.10975 -77.73926 36937 ft 511 kts 122°
2026-04-30 21:33 27.05090 -77.64035 36941 ft 511 kts 122°
2026-04-30 21:34 27.01150 -77.57425 36946 ft 510 kts 122°
2026-04-30 21:34 26.95330 -77.47442 36945 ft 509 kts 121°
2026-04-30 21:35 26.91487 -77.40854 36947 ft 508 kts 121°
2026-04-30 21:35 26.87606 -77.34209 36938 ft 508 kts 121°
2026-04-30 21:36 26.83768 -77.27649 36939 ft 507 kts 121°
2026-04-30 21:37 26.76033 -77.14460 36943 ft 508 kts 121°
2026-04-30 21:37 26.72159 -77.07865 36944 ft 507 kts 121°
2026-04-30 21:38 26.68284 -77.01283 36945 ft 506 kts 121°
2026-04-30 21:38 26.64441 -76.94763 36943 ft 505 kts 121°
2026-04-30 21:39 26.60575 -76.88213 36952 ft 507 kts 121°
2026-04-30 21:39 26.56684 -76.81630 36948 ft 507 kts 121°
2026-04-30 21:40 26.52821 -76.75105 36950 ft 505 kts 121°
2026-04-30 21:40 26.48936 -76.68552 36949 ft 506 kts 121°
2026-04-30 21:41 26.45065 -76.62030 36951 ft 506 kts 121°
2026-04-30 21:41 26.41188 -76.55510 36950 ft 505 kts 121°
2026-04-30 21:42 26.37326 -76.49023 36951 ft 506 kts 121°
2026-04-30 21:42 26.33423 -76.42476 36949 ft 505 kts 121°
2026-04-30 21:43 26.30184 -76.37051 36953 ft 506 kts 121°
2026-04-30 21:43 26.25651 -76.29468 36947 ft 506 kts 122°
2026-04-30 21:44 26.21749 -76.22954 36947 ft 505 kts 121°
2026-04-30 21:44 26.17862 -76.16472 36952 ft 506 kts 121°
2026-04-30 21:45 26.13980 -76.10006 36948 ft 505 kts 121°
2026-04-30 21:45 26.10070 -76.03503 36951 ft 507 kts 121°
2026-04-30 21:46 26.06159 -75.97009 36953 ft 506 kts 121°
2026-04-30 21:46 26.02245 -75.90517 36958 ft 505 kts 121°
2026-04-30 21:47 25.98329 -75.84032 36949 ft 506 kts 121°
2026-04-30 21:47 25.94434 -75.77593 36950 ft 505 kts 121°
2026-04-30 21:48 25.90517 -75.71126 36955 ft 505 kts 121°
2026-04-30 21:48 25.86591 -75.64648 36953 ft 504 kts 121°
2026-04-30 21:49 25.82690 -75.58225 36956 ft 505 kts 121°
2026-04-30 21:49 25.78763 -75.51770 36954 ft 504 kts 121°
2026-04-30 21:50 25.74868 -75.45371 36954 ft 504 kts 122°
2026-04-30 21:50 25.70951 -75.38950 36958 ft 503 kts 121°
2026-04-30 21:51 25.67022 -75.32515 36953 ft 505 kts 122°
2026-04-30 21:51 25.63096 -75.26093 36953 ft 503 kts 122°
2026-04-30 21:52 25.59172 -75.19685 36965 ft 502 kts 122°
2026-04-30 21:52 25.55243 -75.13277 36959 ft 505 kts 122°
2026-04-30 21:53 25.51309 -75.06870 36964 ft 504 kts 122°
2026-04-30 21:53 25.47371 -75.00465 36964 ft 503 kts 122°
2026-04-30 21:54 25.43465 -74.94119 36967 ft 503 kts 123°
2026-04-30 21:54 25.39522 -74.87725 36968 ft 503 kts 122°
2026-04-30 21:55 25.35583 -74.81344 36971 ft 502 kts 123°
2026-04-30 21:55 25.31657 -74.74994 36965 ft 500 kts 123°
2026-04-30 21:56 25.27722 -74.68635 36971 ft 502 kts 123°
2026-04-30 21:56 25.23790 -74.62293 36971 ft 500 kts 123°
2026-04-30 21:57 25.19898 -74.56020 36971 ft 498 kts 123°
2026-04-30 21:57 25.15974 -74.49706 36971 ft 500 kts 123°
2026-04-30 21:58 25.12046 -74.43396 36974 ft 499 kts 122°
2026-04-30 21:58 25.08126 -74.37105 36972 ft 497 kts 122°
2026-04-30 21:59 25.04210 -74.30827 36971 ft 498 kts 123°
2026-04-30 22:00 24.98322 -74.21405 36972 ft 497 kts 123°
2026-04-30 22:00 24.92434 -74.12003 36970 ft 498 kts 123°
2026-04-30 22:01 24.88517 -74.05758 36962 ft 497 kts 123°
2026-04-30 22:01 24.84602 -73.99525 36967 ft 495 kts 123°
2026-04-30 22:02 24.80680 -73.93286 36965 ft 497 kts 123°
2026-04-30 22:02 24.76773 -73.87081 36967 ft 495 kts 123°
2026-04-30 22:03 24.72837 -73.80839 36968 ft 496 kts 123°
2026-04-30 22:03 24.68928 -73.74647 36964 ft 496 kts 123°
2026-04-30 22:04 24.64987 -73.68411 36966 ft 497 kts 123°
2026-04-30 22:05 24.59089 -73.59094 36969 ft 495 kts 123°
2026-04-30 22:05 24.55267 -73.52786 36982 ft 495 kts 118°
2026-04-30 22:06 24.51815 -73.46314 36971 ft 493 kts 119°
2026-04-30 22:06 24.46594 -73.36631 36979 ft 494 kts 119°
2026-04-30 22:07 24.43096 -73.30164 36975 ft 494 kts 120°
2026-04-30 22:07 24.39585 -73.23689 36975 ft 492 kts 120°
2026-04-30 22:08 24.36087 -73.17245 36976 ft 493 kts 120°
2026-04-30 22:08 24.32589 -73.10809 36978 ft 494 kts 120°
2026-04-30 22:09 24.29074 -73.04352 36985 ft 492 kts 120°
2026-04-30 22:09 24.25590 -72.97959 36983 ft 492 kts 120°
2026-04-30 22:10 24.22082 -72.91531 36983 ft 493 kts 120°
2026-04-30 22:10 24.18574 -72.85112 36983 ft 492 kts 120°
2026-04-30 22:11 24.13318 -72.75510 36985 ft 492 kts 120°
2026-04-30 22:12 24.09793 -72.69081 36988 ft 492 kts 120°
2026-04-30 22:12 24.06264 -72.62652 36994 ft 493 kts 120°
2026-04-30 22:13 24.02758 -72.56276 36991 ft 491 kts 120°
2026-04-30 22:13 23.99230 -72.49865 36986 ft 493 kts 120°
2026-04-30 22:14 23.95693 -72.43448 36992 ft 494 kts 120°
2026-04-30 22:14 23.92151 -72.37028 36991 ft 495 kts 120°
2026-04-30 22:15 23.88591 -72.30585 36977 ft 494 kts 121°
2026-04-30 22:15 23.85032 -72.24153 36974 ft 494 kts 121°
2026-04-30 22:16 23.81485 -72.17751 36977 ft 495 kts 121°
2026-04-30 22:17 23.74358 -72.04915 36979 ft 497 kts 121°
2026-04-30 22:17 23.68992 -71.95268 36983 ft 498 kts 121°
2026-04-30 22:18 23.63589 -71.85577 36973 ft 497 kts 122°
2026-04-30 22:19 23.57778 -71.76281 36979 ft 498 kts 127°
2026-04-30 22:20 23.51570 -71.67278 36986 ft 497 kts 128°
2026-04-30 22:20 23.45332 -71.58279 36983 ft 497 kts 128°
2026-04-30 22:21 23.41156 -71.52266 36988 ft 498 kts 128°
2026-04-30 22:21 23.36978 -71.46260 36980 ft 497 kts 128°
2026-04-30 22:22 23.32834 -71.40309 36981 ft 497 kts 128°
2026-04-30 22:22 23.28647 -71.34300 36990 ft 498 kts 129°
2026-04-30 22:23 23.24468 -71.28315 36975 ft 497 kts 129°
2026-04-30 22:23 23.20292 -71.22339 36979 ft 498 kts 129°
2026-04-30 22:24 23.16102 -71.16351 36980 ft 498 kts 129°
2026-04-30 22:24 23.11914 -71.10372 36980 ft 498 kts 129°
2026-04-30 22:25 23.07743 -71.04423 36983 ft 499 kts 129°
2026-04-30 22:25 23.03525 -70.98417 36989 ft 500 kts 129°
2026-04-30 22:26 22.97225 -70.89456 36989 ft 499 kts 129°
2026-04-30 22:27 22.93002 -70.83457 36986 ft 500 kts 129°
2026-04-30 22:27 22.86678 -70.74506 36985 ft 499 kts 130°
2026-04-30 22:28 22.80326 -70.65537 36984 ft 501 kts 130°
2026-04-30 22:29 22.71896 -70.53652 36984 ft 499 kts 130°
2026-04-30 22:31 22.57091 -70.32849 36974 ft 500 kts 130°
2026-04-30 22:32 22.46475 -70.17979 36976 ft 500 kts 130°
2026-04-30 22:33 22.35830 -70.03115 36971 ft 500 kts 131°
2026-04-30 22:35 22.25202 -69.88314 36971 ft 500 kts 131°
2026-04-30 22:36 22.14500 -69.73454 36974 ft 501 kts 131°
2026-04-30 22:37 22.05953 -69.61615 36972 ft 502 kts 131°
2026-04-30 22:38 21.97386 -69.49775 36970 ft 503 kts 131°
2026-04-30 22:39 21.90929 -69.40866 36974 ft 501 kts 131°
2026-04-30 22:40 21.78032 -69.23120 36960 ft 503 kts 132°
2026-04-30 22:41 21.67268 -69.08353 36963 ft 504 kts 132°
2026-04-30 22:43 21.54297 -68.90611 36960 ft 503 kts 132°
2026-04-30 22:44 21.45669 -68.78841 36959 ft 505 kts 132°
2026-04-30 22:45 21.32636 -68.61111 36962 ft 504 kts 132°
2026-04-30 22:47 21.19904 -68.43842 36964 ft 504 kts 132°
2026-04-30 22:48 21.11203 -68.32072 36954 ft 504 kts 133°
2026-04-30 22:49 20.98127 -68.14432 36961 ft 506 kts 133°
2026-04-30 22:51 20.85032 -67.96786 36962 ft 507 kts 132°
2026-04-30 22:52 20.78565 -67.87883 36965 ft 506 kts 132°
2026-04-30 22:53 20.69903 -67.75988 36962 ft 507 kts 133°
2026-04-30 22:53 20.63433 -67.67121 36965 ft 506 kts 133°
2026-04-30 22:55 20.52602 -67.52306 36963 ft 508 kts 133°
2026-04-30 22:56 20.43897 -67.40427 36965 ft 509 kts 133°
2026-04-30 22:57 20.33074 -67.25692 36952 ft 507 kts 134°
2026-04-30 22:58 20.24375 -67.13873 36948 ft 506 kts 134°
2026-04-30 22:59 20.11315 -66.96175 36956 ft 509 kts 134°